ARIANE 44LP+ R/B, 22913

Orbit data source: Space-Track

ARIANE 44LP+ R/B, 22913 is space debris in LEO originally from a launch on Sat, 20 Nov 1993 UTC launched from the French Guiana (FRGUI). Debris objects in space refer to the collection of defunct objects orbiting the Earth. Examples of debris include non-operational satellites, rocket bodies, and fragments generated from explosions, collisions, or faulty payload assembly.

Loading next visibility...
Identifier
22913, 1993-073C
Orbit
LEO
Last TLE update
11 hours ago
Origin
Manufacturer
Ae/LesM
Mission
Spacecraft
Bus & Motor
ARIANE H10+/S, Unknown motor
Mass
2,260 kg wet, 2,080 kg dry
Launch date (UTC)
1993-11-20 (32 years ago)
Launch vehicle
Unknown
Launch site
French Guiana (FRGUI)
Object type
Payload
Rocket body
Debris
Shape & HBR
Cyl, 14.1 m
Radar Cross Section
31.447 m², Large (>1 m²)

Expand to show TLE details & history

TLE from 11 hours ago
0 ARIANE 44LP+ R/B
1 22913U 93073C   25183.40187652  .00163107 -93220-5  17287-2 0  9998
2 22913   6.7417 222.1661 2090503 228.8004 111.2236 11.37494555671214
Epoch: 2025-07-02T09:38Z
TLE epoch observation values (Epoch: 2025-07-02T09:38:42.131Z)
Latitude
-0°
Longitude
156.80703°
Altitude
2,881.125 km
Speed
6.197 km/s
True Right ascension
14h 48m 39s
True Declination
0° 00' 00"
Sunlit
Object was in daylight at epoch
Visualization orbit readout
Latitude
-0.36444°
Longitude
151.88779°
Altitude
2,676.143 km
Speed
6.352 km/s
Apparent Right ascension
16h 13m 49s
Apparent Declination
-20° 39' 07"
Sunlit
Object is in daylight
Visualization observer readout
Local Sidereal Time
07:52:42
Azimuth
84.296° E
Elevation
-39.855°
Doppler factor
1
Orbital elements
Apogee altitude
3,726.037 km
Perigee altitude
231.922 km
Semi-major axis
8,357.116 km
Eccentricity
0.20905
Inclination
6.7417°
RAAN
222.1661°
Arg. of periapsis
228.8004°
True anomaly
Unknown
Mean anomaly
111.2236°
Eccentric anomaly
Unknown
Mean motion
2.84092 °/min
Orbital period
126.72 mins
BSTAR
0.0017287
Loading maneuver chart data...
Loading SW <> Apogee altitude chart data...
Loading historical data...
Loading historical data...
Loading historical data...
Loading historical data...
Loading historical data...
Loading historical data...
Loading historical data...

ARIANE 44LP+ R/B Visibility forecast

Observer location: undefined°, undefined°

Span
Click to sort rows by Start time (UTC) header in descending order
Start Az.
Max El. time (UTC)
Max El. Az.
Max El.
End time (UTC)
End Az.
20 mins2025-07-03 04:43:42.909Z195.08° SSW2025-07-03 04:53:42.909Z166.067° S15.15°2025-07-03 05:03:42.909Z140.096° SSE
25 mins2025-07-03 07:01:42.909Z213.346° SW2025-07-03 07:14:42.909Z178.256° S18.537°2025-07-03 07:26:42.909Z143.228° SSE
18 mins2025-07-03 09:24:42.909Z219.992° SW2025-07-03 09:34:42.909Z191.84° SSW15.814°2025-07-03 09:42:42.909Z163.241° S
|